Charles City, IA

12:32 AM CDT on July 25, 2017 (GMT -0500)
Charles City Municipal

Weather History for KCCY - December, 2012

Change the Weather History Date:

Wednesday, December 26, 2012

  Actual Average Record
Temperature  
Mean Temperature 14 °F -  
Max Temperature 21 °F 25 °F 47 °F (1959)
Min Temperature 6 °F 6 °F -25 °F (1962)
Degree Days  
Heating Degree Days 52    
Moisture  
Dew Point 5 °F    
Average Humidity 75    
Maximum Humidity 80    
Minimum Humidity 72    
Precipitation  
Precipitation 0.00 in - - ()
Sea Level Pressure  
Sea Level Pressure 30.23 in    
Wind  
Wind Speed 10 mph (North)    
Max Wind Speed 13 mph    
Max Gust Speed -    
Visibility 10 miles    
Events      
Averages and records for this station are not official NWS values.
T = Trace of Precipitation, MM = Missing Value Source: NWS Daily Summary

Daily Weather History Graph

Daily Weather History Graph

Search for Another Location

Airport or City:

Trip Planner

Search our weather history database for the weather conditions in past years. The results will help you decide how hot, cold, wet, or windy it might be!

Date:

Astronomy

Dec. 26, 2012 Rise Set
Actual Time 7:40 AM CST 4:41 PM CST
Civil Twilight 7:08 AM CST 5:14 PM CST
Nautical Twilight 6:32 AM CST 5:50 PM CST
Astronomical Twilight 5:58 AM CST 6:24 PM CST
Moon 3:36 PM CST (12/26) 6:04 AM CST (12/26)
Length of Visible Light 10h 05m
Length of Day
9h 00m
Waxing Gibbous, 97% of the Moon is Illuminated
Dec 26
Waxing Gibbous
Dec 28
Full
Jan 4
Last Quarter
Jan 11
New
Jan 18
First Quarter

Hourly Weather History & Observations

Time (CST) Temp. Windchill Dew Point Humidity Pressure Visibility Wind Dir Wind Speed Gust Speed Precip Events Conditions
12:15 AM 6.8 °F -9.3 °F -0.4 °F 72% 30.31 in 10.0 mi NNE 12.7 mph - N/A   Mostly Cloudy
12:35 AM 6.8 °F -8.6 °F -0.4 °F 72% 30.31 in 10.0 mi NNE 11.5 mph - N/A   Partly Cloudy
12:55 AM 6.8 °F -7.8 °F -0.4 °F 72% 30.31 in 10.0 mi NNE 10.4 mph - N/A   Clear
1:15 AM 6.8 °F -9.3 °F -0.4 °F 72% 30.31 in 10.0 mi North 12.7 mph - N/A   Clear
1:35 AM 6.8 °F -8.6 °F -0.4 °F 72% 30.31 in 10.0 mi North 11.5 mph - N/A   Clear
1:55 AM 6.8 °F -7.8 °F -0.4 °F 72% 30.31 in 10.0 mi North 10.4 mph - N/A   Clear
2:15 AM 6.8 °F -7.8 °F -0.4 °F 72% 30.31 in 10.0 mi North 10.4 mph - N/A   Partly Cloudy
2:35 AM 6.8 °F -8.6 °F -0.4 °F 72% 30.31 in 10.0 mi North 11.5 mph - N/A   Mostly Cloudy
2:55 AM 6.8 °F -8.6 °F -0.4 °F 72% 30.30 in 10.0 mi North 11.5 mph - N/A   Mostly Cloudy
3:15 AM 6.8 °F -7.8 °F -0.4 °F 72% 30.30 in 10.0 mi North 10.4 mph - N/A   Mostly Cloudy
3:35 AM 6.8 °F -7.8 °F -0.4 °F 72% 30.30 in 10.0 mi North 10.4 mph - N/A   Mostly Cloudy
3:55 AM 6.8 °F -7.8 °F -0.4 °F 72% 30.29 in 10.0 mi North 10.4 mph - N/A   Overcast
4:15 AM 6.8 °F -7.8 °F -0.4 °F 72% 30.28 in 10.0 mi North 10.4 mph - N/A   Overcast
4:35 AM 6.8 °F -8.6 °F -0.4 °F 72% 30.28 in 10.0 mi North 11.5 mph - N/A   Overcast
4:55 AM 6.8 °F -8.6 °F -0.4 °F 72% 30.27 in 10.0 mi North 11.5 mph - N/A   Scattered Clouds
5:15 AM 6.8 °F -7.8 °F -0.4 °F 72% 30.26 in 10.0 mi North 10.4 mph - N/A   Scattered Clouds
5:35 AM 6.8 °F -8.6 °F -0.4 °F 72% 30.25 in 10.0 mi North 11.5 mph - N/A   Overcast
5:55 AM 6.8 °F -7.8 °F -0.4 °F 72% 30.24 in 10.0 mi North 10.4 mph - N/A   Overcast
6:15 AM 6.8 °F -7.8 °F -0.4 °F 72% 30.23 in 10.0 mi North 10.4 mph - N/A   Overcast
6:35 AM 6.8 °F -4.8 °F -0.4 °F 72% 30.23 in 10.0 mi NNE 6.9 mph - N/A   Scattered Clouds
6:55 AM 6.8 °F -5.9 °F -0.4 °F 72% 30.23 in 10.0 mi North 8.1 mph - N/A   Scattered Clouds
7:15 AM 6.8 °F -6.9 °F -0.4 °F 72% 30.22 in 10.0 mi North 9.2 mph - N/A   Overcast
7:35 AM 6.8 °F -7.8 °F -0.4 °F 72% 30.23 in 10.0 mi North 10.4 mph - N/A   Mostly Cloudy
7:55 AM 6.8 °F -6.9 °F -0.4 °F 72% 30.23 in 10.0 mi North 9.2 mph - N/A   Scattered Clouds
8:15 AM 6.8 °F -6.9 °F -0.4 °F 72% 30.23 in 10.0 mi North 9.2 mph - N/A   Partly Cloudy
8:35 AM 8.6 °F -4.7 °F 1.4 °F 73% 30.24 in 10.0 mi North 9.2 mph - N/A   Clear
8:55 AM 8.6 °F -4.7 °F 3.2 °F 79% 30.24 in 10.0 mi North 9.2 mph - N/A   Partly Cloudy
9:15 AM 10.4 °F -2.4 °F 3.2 °F 73% 30.25 in 10.0 mi North 9.2 mph - N/A   Partly Cloudy
9:35 AM 10.4 °F -2.4 °F 3.2 °F 73% 30.24 in 10.0 mi North 9.2 mph - N/A   Mostly Cloudy
9:55 AM 12.2 °F -0.2 °F 5.0 °F 73% 30.25 in 10.0 mi North 9.2 mph - N/A   Mostly Cloudy
10:15 AM 12.2 °F -0.2 °F 5.0 °F 73% 30.24 in 10.0 mi North 9.2 mph - N/A   Overcast
10:35 AM 14.0 °F 2.0 °F 6.8 °F 73% 30.24 in 10.0 mi North 9.2 mph - N/A   Overcast
10:55 AM 14.0 °F 2.0 °F 8.6 °F 79% 30.24 in 10.0 mi North 9.2 mph - N/A   Overcast
11:15 AM 15.8 °F 4.2 °F 8.6 °F 73% 30.24 in 10.0 mi North 9.2 mph - N/A   Overcast
11:35 AM 17.6 °F 7.3 °F 10.4 °F 73% 30.23 in 10.0 mi North 8.1 mph - N/A   Overcast
11:55 AM 17.6 °F 7.3 °F 10.4 °F 73% 30.22 in 10.0 mi North 8.1 mph - N/A   Overcast
12:15 PM 19.4 °F 9.5 °F 12.2 °F 74% 30.21 in 10.0 mi North 8.1 mph - N/A   Overcast
12:35 PM 19.4 °F 8.6 °F 12.2 °F 74% 30.21 in 10.0 mi North 9.2 mph - N/A   Overcast
12:55 PM 19.4 °F 8.6 °F 12.2 °F 74% 30.21 in 10.0 mi North 9.2 mph - N/A   Overcast
1:15 PM 19.4 °F 8.6 °F 12.2 °F 74% 30.20 in 10.0 mi North 9.2 mph - N/A   Overcast
1:35 PM 21.2 °F 11.7 °F 14.0 °F 74% 30.20 in 10.0 mi NNE 8.1 mph - N/A   Overcast
1:55 PM 21.2 °F 11.7 °F 14.0 °F 74% 30.20 in 10.0 mi NNE 8.1 mph - N/A   Overcast
2:15 PM 21.2 °F 10.9 °F 14.0 °F 74% 30.19 in 10.0 mi North 9.2 mph - N/A   Overcast
2:35 PM 21.2 °F 10.1 °F 14.0 °F 74% 30.20 in 10.0 mi North 10.4 mph - N/A   Overcast
2:55 PM 21.2 °F 10.9 °F 14.0 °F 74% 30.20 in 10.0 mi North 9.2 mph - N/A   Overcast
3:15 PM 21.2 °F 10.9 °F 14.0 °F 74% 30.20 in 10.0 mi North 9.2 mph - N/A   Overcast
3:35 PM 21.2 °F 10.9 °F 14.0 °F 74% 30.20 in 10.0 mi North 9.2 mph - N/A   Overcast
3:55 PM 21.2 °F 12.6 °F 14.0 °F 74% 30.20 in 10.0 mi NNE 6.9 mph - N/A   Overcast
4:15 PM 21.2 °F 12.6 °F 14.0 °F 74% 30.21 in 10.0 mi North 6.9 mph - N/A   Overcast
4:35 PM 19.4 °F 10.4 °F 14.0 °F 80% 30.20 in 10.0 mi NNE 6.9 mph - N/A   Overcast
4:55 PM 19.4 °F 8.6 °F 12.2 °F 74% 30.20 in 10.0 mi North 9.2 mph - N/A   Overcast
5:15 PM 17.6 °F 7.3 °F 12.2 °F 79% 30.20 in 10.0 mi North 8.1 mph - N/A   Overcast
5:35 PM 17.6 °F 7.3 °F 10.4 °F 73% 30.20 in 10.0 mi North 8.1 mph - N/A   Mostly Cloudy
5:55 PM 15.8 °F 7.2 °F 10.4 °F 79% 30.21 in 10.0 mi North 5.8 mph - N/A   Partly Cloudy
6:15 PM 14.0 °F 3.9 °F 8.6 °F 79% 30.21 in 10.0 mi North 6.9 mph - N/A   Clear
6:35 PM 14.0 °F 3.9 °F 8.6 °F 79% 30.20 in 10.0 mi NNE 6.9 mph - N/A   Clear
6:55 PM 14.0 °F 5.1 °F 8.6 °F 79% 30.21 in 10.0 mi NNE 5.8 mph - N/A   Clear
7:15 PM 12.2 °F 4.3 °F 6.8 °F 79% 30.21 in 10.0 mi NNE 4.6 mph - N/A   Clear
7:35 PM 12.2 °F 6.1 °F 6.8 °F 79% 30.22 in 10.0 mi NE 3.5 mph - N/A   Clear
7:55 PM 12.2 °F - 6.8 °F 79% 30.22 in 10.0 mi Calm Calm - N/A   Clear
8:15 PM 10.4 °F - 5.0 °F 79% 30.22 in 10.0 mi Calm Calm - N/A   Clear
8:35 PM 10.4 °F 2.2 °F 5.0 °F 79% 30.21 in 10.0 mi North 4.6 mph - N/A   Clear
8:55 PM 10.4 °F -0.4 °F 5.0 °F 79% 30.21 in 10.0 mi NNE 6.9 mph - N/A   Clear
9:15 PM 10.4 °F -0.4 °F 5.0 °F 79% 30.21 in 10.0 mi NNE 6.9 mph - N/A   Clear
9:35 PM 10.4 °F -0.4 °F 5.0 °F 79% 30.21 in 10.0 mi NNE 6.9 mph - N/A   Clear
9:55 PM 10.4 °F -2.4 °F 5.0 °F 79% 30.20 in 10.0 mi NE 9.2 mph - N/A   Clear
10:15 PM 10.4 °F -2.4 °F 5.0 °F 79% 30.20 in 10.0 mi NNE 9.2 mph - N/A   Clear
10:35 PM 10.4 °F 2.2 °F 5.0 °F 79% 30.20 in 10.0 mi North 4.6 mph - N/A   Clear
10:55 PM 8.6 °F 0.1 °F 3.2 °F 79% 30.20 in 10.0 mi NNE 4.6 mph - N/A   Clear
11:15 PM 8.6 °F 2.0 °F 3.2 °F 79% 30.20 in 10.0 mi NNW 3.5 mph - N/A   Clear
11:35 PM 8.6 °F - 1.4 °F 73% 30.20 in 10.0 mi Calm Calm - N/A   Partly Cloudy
11:55 PM 8.6 °F 0.1 °F 3.2 °F 79% 30.20 in 10.0 mi NNE 4.6 mph - N/A   Mostly Cloudy